EW1107 Weather Reports


time (UTC)temp
C
wind
direction
speed
KPH
gust
KPH
rain 1hr
cm
rain 24hr
cm
rain mn
cm
humidity
%
barometer
mb
20260503055047 16 153 9.7 22.5 0.00 0.00 0.00 55 1017.0
20260503054556 15 165 11.3 32.2 0.00 0.00 0.00 55 1017.1
20260503054045 15 155 14.5 32.2 0.00 0.00 0.00 55 1017.2
20260503053543 15 184 12.9 32.2 0.00 0.00 0.00 56 1017.2
20260503053042 15 191 8.0 25.7 0.00 0.00 0.00 57 1017.3
20260503052540 14 186 11.3 25.7 0.00 0.00 0.00 58 1017.3
20260503052039 14 206 12.9 22.5 0.00 0.00 0.00 58 1017.3
20260503051538 13 167 1.6 17.7 0.00 0.00 0.00 59 1017.3
20260503051036 13 165 3.2 25.7 0.00 0.00 0.00 60 1017.3
20260503050534 13 169 4.8 25.7 0.00 0.00 0.00 61 1017.4
20260503050039 13 199 3.2 17.7 0.00 0.00 0.00 61 1017.5
20260503045534 13 178 0.0 11.3 0.00 0.00 0.00 63 1017.5
20260503045032 12 150 1.6 16.1 0.00 0.00 0.00 64 1017.5
20260503044531 12 164 4.8 16.1 0.00 0.00 0.00 64 1017.5
20260503044027 12 165 3.2 14.5 0.00 0.00 0.00 66 1017.5
20260503043528 12 148 4.8 12.9 0.00 0.00 0.00 66 1017.5
20260503043024 11 160 1.6 11.3 0.00 0.00 0.00 68 1017.5
20260503042524 11 147 0.0 12.9 0.00 0.00 0.00 69 1017.5
20260503042022 11 157 1.6 14.5 0.00 0.00 0.00 70 1017.6
20260503041529 10 157 1.6 14.5 0.00 0.00 0.00 71 1017.6
20260503041018 10 158 0.0 1.6 0.00 0.00 0.00 72 1017.6
20260503040517 10 153 0.0 0.0 0.00 0.00 0.00 73 1017.6
20260503040017 10 144 0.0 0.0 0.00 0.00 0.00 74 1017.7
20260503035516 9 164 0.0 0.0 0.00 0.00 0.00 74 1017.7
20260503035016 9 149 0.0 0.0 0.00 0.00 0.00 74 1017.7
20260503034516 9 207 0.0 0.0 0.00 0.00 0.00 74 1017.7
20260503034015 9 202 0.0 0.0 0.00 0.00 0.00 74 1017.7
20260503033516 9 202 0.0 0.0 0.00 0.00 0.00 74 1017.7
20260503033014 9 203 0.0 0.0 0.00 0.00 0.00 74 1017.8
20260503032518 9 203 0.0 0.0 0.00 0.00 0.00 74 1017.7
20260503032015 9 203 0.0 0.0 0.00 0.00 0.00 74 1017.7
20260503031513 9 203 0.0 0.0 0.00 0.00 0.00 74 1017.7
20260503031013 9 203 0.0 0.0 0.00 0.00 0.00 73 1017.6
20260503030513 9 203 0.0 0.0 0.00 0.00 0.00 73 1017.7
20260503030014 9 203 0.0 0.0 0.00 0.00 0.00 73 1017.7
20260503025513 9 203 0.0 0.0 0.00 0.00 0.00 73 1017.7
20260503025012 9 203 0.0 0.0 0.00 0.00 0.00 73 1017.6
20260503024512 9 203 0.0 0.0 0.00 0.00 0.00 74 1017.7
20260503024012 9 203 0.0 0.0 0.00 0.00 0.00 74 1017.7
20260503023513 9 203 0.0 0.0 0.00 0.00 0.00 74 1017.6
20260503023010 9 203 0.0 0.0 0.00 0.00 0.00 74 1017.7
20260503022510 9 203 0.0 0.0 0.00 0.00 0.00 74 1017.7
20260503022010 9 203 0.0 0.0 0.00 0.00 0.00 74 1017.7
20260503021519 9 203 0.0 0.0 0.00 0.00 0.00 74 1017.7
20260503021010 9 203 0.0 0.0 0.00 0.00 0.00 74 1017.7
20260503020510 9 203 0.0 0.0 0.00 0.00 0.00 74 1017.8
20260503020010 9 203 0.0 0.0 0.00 0.00 0.00 73 1017.8
20260503015509 9 203 0.0 0.0 0.00 0.00 0.00 73 1017.7
20260503015009 10 203 0.0 0.0 0.00 0.00 0.00 73 1017.8
20260503014508 10 203 0.0 0.0 0.00 0.00 0.00 73 1017.8
20260503014009 10 203 0.0 0.0 0.00 0.00 0.00 73 1017.9
20260503013508 10 203 0.0 0.0 0.00 0.00 0.00 73 1017.8
20260503013008 10 203 0.0 0.0 0.00 0.00 0.00 74 1017.9
20260503012507 9 203 0.0 0.0 0.00 0.00 0.00 74 1017.8
20260503012009 9 203 0.0 0.0 0.00 0.00 0.00 73 1017.9
20260503011506 9 203 0.0 0.0 0.00 0.00 0.00 74 1017.9
20260503011006 9 203 0.0 0.0 0.00 0.00 0.00 74 1017.9
20260503010506 9 203 0.0 0.0 0.00 0.00 0.00 74 1018.0
20260503010006 9 203 0.0 0.0 0.00 0.00 0.00 74 1017.9
20260503005505 9 203 0.0 0.0 0.00 0.00 0.00 74 1017.9
20260503005005 9 203 0.0 0.0 0.00 0.00 0.00 73 1018.0
20260503004503 10 203 0.0 0.0 0.00 0.00 0.00 73 1017.9
20260503004006 10 203 0.0 0.0 0.00 0.00 0.00 72 1017.9
20260503003502 10 203 0.0 0.0 0.00 0.00 0.00 72 1017.9
20260503003002 10 203 0.0 0.0 0.00 0.00 0.00 72 1018.0
20260503002501 10 203 0.0 0.0 0.00 0.00 0.00 71 1018.0
20260503002100 10 203 0.0 0.0 0.00 0.00 0.00 70 1018.0
20260503001608 10 202 0.0 0.0 0.00 0.00 0.00 70 1018.0
20260503001058 10 202 0.0 0.0 0.00 0.00 0.00 69 1018.0
20260503000604 10 203 0.0 0.0 0.00 0.00 0.00 69 1018.0
20260503000057 11 202 0.0 0.0 0.00 0.00 0.00 69 1018.1
20260502235555 11 203 0.0 0.0 0.00 0.00 0.00 68 1018.1
20260502235054 11 203 0.0 0.0 0.00 0.00 0.00 68 1018.1
20260502234554 11 203 0.0 0.0 0.00 0.00 0.00 67 1018.1
20260502234053 11 203 0.0 0.0 0.00 0.00 0.00 67 1018.2
20260502233552 11 203 0.0 0.0 0.00 0.00 0.00 66 1018.1
20260502233052 12 203 0.0 0.0 0.00 0.00 0.00 65 1018.1
20260502232552 12 203 0.0 0.0 0.00 0.00 0.00 65 1018.0
20260502232048 12 203 0.0 0.0 0.00 0.00 0.00 64 1018.1
20260502231548 12 203 0.0 0.0 0.00 0.00 0.00 64 1018.2
20260502231047 12 203 0.0 0.0 0.00 0.00 0.00 62 1018.2
20260502230546 12 203 0.0 0.0 0.00 0.00 0.00 62 1018.1
20260502230046 12 203 0.0 0.0 0.00 0.00 0.00 62 1018.2
20260502225545 12 203 0.0 0.0 0.00 0.00 0.00 62 1018.2
20260502225045 12 203 0.0 0.0 0.00 0.00 0.00 62 1018.3
20260502224544 12 203 0.0 0.0 0.00 0.00 0.00 61 1018.4
20260502224042 13 203 0.0 0.0 0.00 0.00 0.00 61 1018.3
20260502223542 13 203 0.0 0.0 0.00 0.00 0.00 60 1018.4
20260502223042 13 203 0.0 0.0 0.00 0.00 0.00 60 1018.3
20260502222540 13 203 0.0 0.0 0.00 0.00 0.00 59 1018.3
20260502222039 13 203 0.0 0.0 0.00 0.00 0.00 59 1018.3
20260502221541 13 203 0.0 0.0 0.00 0.00 0.00 58 1018.4
20260502221040 13 203 0.0 0.0 0.00 0.00 0.00 57 1018.5
20260502220537 14 203 0.0 0.0 0.00 0.00 0.00 57 1018.5
20260502220037 14 203 0.0 0.0 0.00 0.00 0.00 56 1018.5
20260502215537 14 203 0.0 0.0 0.00 0.00 0.00 56 1018.5
20260502215037 15 203 0.0 0.0 0.00 0.00 0.00 56 1018.6
20260502214536 15 203 0.0 0.0 0.00 0.00 0.00 56 1018.6
20260502214035 15 202 0.0 0.0 0.00 0.00 0.00 56 1018.7
20260502213535 15 202 0.0 0.0 0.00 0.00 0.00 56 1018.7
20260502213035 15 202 0.0 0.0 0.00 0.00 0.00 56 1018.7
20260502212536 15 202 0.0 0.0 0.00 0.00 0.00 56 1018.7
20260502212034 15 202 0.0 0.0 0.00 0.00 0.00 55 1018.7
20260502211535 15 202 0.0 0.0 0.00 0.00 0.00 55 1018.7
20260502211037 15 202 0.0 0.0 0.00 0.00 0.00 54 1018.8
20260502210534 15 202 0.0 0.0 0.00 0.00 0.00 53 1018.7
20260502210033 15 202 0.0 0.0 0.00 0.00 0.00 53 1018.7
20260502205533 15 202 0.0 0.0 0.00 0.00 0.00 53 1018.8
20260502205032 16 202 0.0 0.0 0.00 0.00 0.00 52 1018.8
20260502204533 16 202 0.0 0.0 0.00 0.00 0.00 52 1018.8
20260502204031 16 202 0.0 0.0 0.00 0.00 0.00 52 1018.8
20260502203532 16 202 0.0 0.0 0.00 0.00 0.00 51 1018.8
20260502203031 16 202 0.0 0.0 0.00 0.00 0.00 50 1018.8
20260502202530 16 202 0.0 0.0 0.00 0.00 0.00 50 1018.8
20260502202030 16 202 0.0 0.0 0.00 0.00 0.00 50 1018.9
20260502201535 16 202 0.0 0.0 0.00 0.00 0.00 49 1018.9
20260502201030 16 172 0.0 0.0 0.00 0.00 0.00 49 1018.9
20260502200532 17 191 0.0 0.0 0.00 0.00 0.00 49 1018.9
20260502200030 17 191 0.0 0.0 0.00 0.00 0.00 49 1018.9
20260502195530 17 198 0.0 0.0 0.00 0.00 0.00 49 1018.9
20260502195029 17 198 0.0 0.0 0.00 0.00 0.00 49 1018.9
20260502194529 17 188 0.0 0.0 0.00 0.00 0.00 49 1018.9
20260502194029 17 183 0.0 0.0 0.00 0.00 0.00 49 1018.9
20260502193529 16 183 0.0 0.0 0.00 0.00 0.00 49 1018.9
20260502193028 16 183 0.0 0.0 0.00 0.00 0.00 49 1019.0
20260502192528 16 183 0.0 0.0 0.00 0.00 0.00 49 1019.0
20260502192027 17 183 0.0 0.0 0.00 0.00 0.00 49 1019.0
20260502191528 17 183 0.0 0.0 0.00 0.00 0.00 49 1019.0
20260502191030 17 183 0.0 0.0 0.00 0.00 0.00 48 1019.0
20260502190527 17 183 0.0 0.0 0.00 0.00 0.00 48 1019.0
20260502190035 17 183 0.0 0.0 0.00 0.00 0.00 46 1019.1
20260502185526 18 183 0.0 0.0 0.00 0.00 0.00 45 1019.0
20260502185026 18 183 0.0 0.0 0.00 0.00 0.00 45 1019.0
20260502184535 18 183 0.0 0.0 0.00 0.00 0.00 44 1019.0
20260502184026 18 183 0.0 0.0 0.00 0.00 0.00 43 1019.0
20260502183526 19 183 0.0 0.0 0.00 0.00 0.00 42 1019.0
20260502183126 19 183 0.0 0.0 0.00 0.00 0.00 42 1019.0
20260502182559 20 183 0.0 0.0 0.00 0.00 0.00 41 1019.0
20260502182058 20 183 0.0 0.0 0.00 0.00 0.00 40 1019.0
20260502181558 20 183 0.0 0.0 0.00 0.00 0.00 40 1019.0
20260502181058 20 183 0.0 0.0 0.00 0.00 0.00 39 1019.0
20260502180602 20 183 0.0 0.0 0.00 0.00 0.00 39 1018.9
20260502130518 24 199 11.3 20.9 0.00 0.00 0.00 32 1021.4
20260502123513 24 250 4.8 17.7 0.00 0.00 0.00 30 1021.8
20260502123019 25 257 0.0 6.4 0.00 0.00 0.00 30 1021.9
20260502122512 24 286 0.0 12.9 0.00 0.00 0.00 31 1021.9
20260502122011 23 112 3.2 12.9 0.00 0.00 0.00 31 1022.0
20260502121511 23 287 0.0 27.4 0.00 0.00 0.00 31 1022.1
20260502121010 23 309 9.7 27.4 0.00 0.00 0.00 32 1022.1
20260502120510 23 180 9.7 27.4 0.00 0.00 0.00 31 1022.2
20260502115507 23 205 0.0 19.3 0.00 0.00 0.00 32 1022.4
20260502115006 23 169 11.3 27.4 0.00 0.00 0.00 33 1022.5
20260502111056 23 294 0.0 30.6 0.00 0.00 0.00 35 1022.9
20260502110556 22 280 16.1 30.6 0.00 0.00 0.00 34 1023.0
20260502110058 23 276 11.3 27.4 0.00 0.00 0.00 35 1023.0
20260502105555 23 213 9.7 24.1 0.00 0.00 0.00 32 1023.0
20260502105053 23 337 1.6 17.7 0.00 0.00 0.00 34 1023.1
20260502104552 22 215 9.7 17.7 0.00 0.00 0.00 34 1023.2
20260502100538 22 355 4.8 27.4 0.00 0.00 0.00 36 1023.5
20260502071025 18 261 0.0 14.5 0.00 0.00 0.00 47 1024.5
20260502070524 18 149 3.2 14.5 0.00 0.00 0.00 47 1024.5
20260502070023 17 205 0.0 1.6 0.00 0.00 0.00 49 1024.5
20260502065521 17 198 0.0 1.6 0.00 0.00 0.00 49 1024.5
20260502065022 17 171 0.0 16.1 0.00 0.00 0.00 50 1024.5
20260502064518 17 209 0.0 16.1 0.00 0.00 0.00 50 1024.5
20260502064018 16 210 0.0 0.0 0.00 0.00 0.00 51 1024.6
20260502063515 17 236 0.0 0.0 0.00 0.00 0.00 51 1024.5
20260502063025 16 165 0.0 0.0 0.00 0.00 0.00 52 1024.5
20260502062512 16 200 0.0 0.0 0.00 0.00 0.00 55 1024.6
20260502062014 15 192 0.0 0.0 0.00 0.00 0.00 55 1024.6
20260502061510 15 227 0.0 0.0 0.00 0.00 0.00 55 1024.6
20260502061008 15 162 0.0 0.0 0.00 0.00 0.00 56 1024.6
20260502060508 15 205 0.0 0.0 0.00 0.00 0.00 57 1024.5
20260502060005 15 163 0.0 0.0 0.00 0.00 0.00 58 1024.5